TDRS 6 (22314 NORAD) Tracking and Keplerian Element Data

This shows tracking and keplerian element data for the satellite.

Feedback or suggestion? Click here.




ElementValue
Catalog22314
NameTDRS 6
Epoch Orbit12061
Epoch Day354.18142497
Epoch Year2025
RAAN358.3843
Inclination14.1789
Eccentricity0.0008146
Argument of Perigee212.9485
Mean Anonmoly257.1907
Mean Motion1.00270429
Decay Rate-2.8E-06
L11 22314U 93003B 25354.18142497 -.00000280 00000+0 00000+0 0 9991
L22 22314 14.1789 358.3843 0008146 212.9485 257.1907 1.00270429120614



Live tracking and technical data element details for TDRS 6 (NORAD 22314). TDRS 6 can be tracked NOW for your location showing map with azimuth and elevation plus other details from your city location.







IsCatalogInMostPopularTable: catalog: 22314, numindb: 504
Update: records affected: 1



GetName: 22314 TDRS 6

Hit Count: updated at: Thu, 16 Apr 2026 05:23:54 GMT